EW4052 Weather Reports


time (UTC)temp
C
wind
direction
speed
KPH
gust
KPH
rain 1hr
cm
rain 24hr
cm
rain mn
cm
humidity
%
barometer
mb
20260902124517 -17 208 0.0 0.0 0.00 0.56 0.20 1010.2
20260902123013 -17 207 0.0 0.0 0.00 0.56 0.20 1010.0
20260902121508 -17 207 0.0 0.0 0.00 0.56 0.20 1009.7
20260902120004 -17 208 0.0 0.0 0.00 0.56 0.20 1010.2
20260902114600 -17 208 1.6 17.7 0.00 0.56 0.20 1010.7
20260902113057 -17 29 0.0 24.1 0.00 0.56 0.20 1009.6
20260902111551 -17 259 0.0 0.0 0.00 0.56 0.20 1010.4
20260902110045 -17 263 0.0 0.0 0.03 0.56 0.20 1010.1
20260902104543 17 54 0.0 0.0 0.03 0.56 0.20 100 1010.2
20260902103037 17 54 0.0 0.0 0.05 0.56 0.20 100 1009.7
20260902101537 17 58 0.0 0.0 0.10 0.56 0.20 100 1010.8
20260902100033 17 49 0.0 0.0 0.08 0.53 0.18 100 1011.5
20260902094532 17 49 0.0 0.0 0.10 0.53 0.18 100 1011.3
20260902093034 18 49 0.0 0.0 0.15 0.51 0.15 100 1012.0
20260902091523 18 277 0.0 0.0 0.10 0.46 0.10 100 1012.6
20260902090014 19 311 0.0 19.3 0.10 0.46 0.10 100 1012.6
20260902084511 20 265 25.7 57.9 0.08 0.43 0.08 28 1014.6
20260902083007 21 32 0.0 16.1 0.00 0.36 0.00 37 1010.7
20260902081502 21 117 0.0 0.0 0.00 0.36 0.00 40 1010.3
20260902080112 21 49 1.6 11.3 0.00 0.36 0.00 46 1010.5
20260902074552 21 29 6.4 16.1 0.00 0.36 0.00 50 1010.8
20260902073049 21 34 3.2 16.1 0.00 0.36 0.00 52 1010.8
20260902071544 22 321 14.5 19.3 0.00 0.36 0.00 46 1011.2
20260902070039 22 355 17.7 25.7 0.00 0.36 0.00 49 1010.9
20260902064535 22 355 17.7 35.4 0.00 0.36 0.00 49 1010.9
20260902063036 22 316 29.0 41.8 0.00 0.36 0.00 100 1010.8
20260902061542 22 51 0.0 0.0 0.00 0.36 0.00 100 1009.9
20260902060021 22 51 0.0 0.0 0.00 0.36 0.00 100 1009.5
20260902054516 22 51 0.0 0.0 0.00 0.36 0.00 100 1009.2
20260902053013 22 51 0.0 0.0 0.00 0.36 0.00 100 1009.3
20260902051509 22 51 0.0 0.0 0.00 0.36 0.00 100 1009.5
20260902050009 22 51 0.0 0.0 0.00 0.36 0.00 100 1009.6
20260902044559 22 51 0.0 0.0 0.00 0.36 0.36 100 1009.4
20260902043055 23 56 0.0 0.0 0.00 0.36 0.36 100 1009.3
20260902041553 23 64 0.0 0.0 0.00 0.36 0.36 100 1009.3
20260902040046 23 64 0.0 0.0 0.00 0.36 0.36 100 1009.6
20260902034554 24 64 0.0 0.0 0.00 0.36 0.36 100 1009.7
20260902033053 24 66 0.0 9.7 0.00 0.36 0.36 2 1009.7
20260902031532 25 123 0.0 0.0 0.00 0.36 0.36 15 1009.8
20260902030028 25 25 0.0 0.0 0.00 0.36 0.36 16 1010.2
20260902024523 25 32 0.0 0.0 0.00 0.36 0.36 25 1010.0
20260902023019 25 32 0.0 0.0 0.00 0.36 0.36 33 1010.0
20260902021523 25 23 0.0 0.0 0.00 0.36 0.36 39 1009.7
20260902020012 25 23 0.0 0.0 0.00 0.36 0.36 38 1009.9
20260902014506 25 15 0.0 4.8 0.00 0.36 0.36 36 1009.7
20260902013002 25 15 0.0 0.0 0.00 0.36 0.36 26 1009.8
20260902011559 26 15 0.0 0.0 0.00 0.36 0.36 28 1009.7
20260902010057 26 15 0.0 0.0 0.00 0.36 0.36 35 1009.7
20260902004548 26 15 0.0 0.0 0.00 0.36 0.36 42 1009.6
20260902003043 27 15 0.0 0.0 0.00 0.36 0.36 50 1009.6
20260902001541 28 15 0.0 0.0 0.00 0.36 0.36 55 1009.6
20260902000038 28 13 0.0 0.0 0.00 0.36 0.36 59 1009.7
20260901234530 28 13 0.0 8.0 0.00 0.36 0.36 63 1009.7
20260901233031 29 50 0.0 8.0 0.00 0.36 0.36 64 1009.8
20260901231522 29 25 0.0 4.8 0.00 0.36 0.36 65 1009.8
20260901230017 30 53 0.0 0.0 0.00 0.36 0.36 66 1009.8
20260901224530 30 53 0.0 0.0 0.00 0.36 0.36 68 1009.9
20260901223008 30 53 0.0 4.8 0.00 0.36 0.36 68 1009.9
20260901221504 30 43 0.0 4.8 0.00 0.36 0.36 68 1009.9
20260901220107 30 333 0.0 1.6 0.00 0.36 0.36 68 1010.0
20260901214555 30 313 0.0 1.6 0.00 0.36 0.36 67 1010.1
20260901213050 30 328 0.0 0.0 0.00 0.36 0.36 66 1010.0
20260901211546 31 327 0.0 6.4 0.00 0.36 0.36 66 1010.0
20260901210042 31 5 0.0 1.6 0.00 0.36 0.36 67 1010.1
20260901204536 31 134 0.0 11.3 0.00 0.36 0.36 66 1010.3
20260901203038 31 360 3.2 11.3 0.00 0.36 0.36 68 1010.6
20260901201528 30 44 3.2 9.7 0.00 0.36 0.36 68 1010.7
20260901200027 29 21 0.0 6.4 0.00 0.36 0.36 66 1011.0
20260901194518 28 9 0.0 4.8 0.00 0.36 0.36 60 1011.0
20260901193014 27 5 0.0 6.4 0.00 0.36 0.36 53 1011.3
20260901191510 27 9 0.0 8.0 0.00 0.36 0.36 29 1011.4
20260901190015 26 349 0.0 6.4 0.03 0.36 0.36 100 1011.5
20260901184601 25 336 0.0 0.0 0.20 0.36 0.36 100 1011.6
20260901183057 23 336 0.0 0.0 0.25 0.36 0.36 100 1011.8
20260901181558 23 335 0.0 0.0 0.36 0.36 0.36 100 1011.2
20260901180047 25 336 0.0 0.0 0.33 0.33 0.33 15 1013.0
20260901174543 27 5 0.0 0.0 0.15 0.15 0.15 60 1012.7
20260901173039 29 5 0.0 0.0 0.08 0.08 0.08 69 1012.5
20260901171545 29 12 0.0 6.4 0.00 0.00 0.00 68 1012.4
20260901170030 28 10 1.6 6.4 0.00 0.00 0.00 62 1012.4
20260901164525 28 11 0.0 6.4 0.00 0.00 0.00 59 1012.3
20260901163020 27 13 1.6 8.0 0.00 0.00 0.00 52 1012.4
20260901161519 27 350 0.0 0.0 0.00 0.00 0.00 46 1012.5
20260901160015 26 350 0.0 0.0 0.00 0.00 0.00 33 1012.5
20260901154507 26 350 0.0 0.0 0.00 0.00 0.00 36 1012.5
20260901153003 26 355 0.0 0.0 0.00 0.00 0.00 39 1012.6
20260901151606 25 355 0.0 0.0 0.00 0.00 0.00 30 1012.5
20260901150055 25 355 0.0 0.0 0.00 0.00 0.00 3 1012.4
20260901144550 24 355 0.0 0.0 0.00 0.00 0.00 100 1012.4
20260901143052 23 276 0.0 0.0 0.00 0.00 0.00 100 1012.6
20260901141540 23 276 0.0 0.0 0.00 0.00 0.00 100 1012.8
20260901140036 22 276 0.0 0.0 0.00 0.00 0.00 100 1012.8
20260901134535 21 275 0.0 0.0 0.00 0.00 0.00 100 1012.7
20260901133026 20 275 0.0 0.0 0.00 0.00 0.00 100 1012.7
20260901131522 20 275 0.0 0.0 0.00 0.00 0.00 100 1012.6
20260901130018 20 275 0.0 0.0 0.00 0.00 0.00 100 1012.7